Location: Sternwarte Stuttgart
(48.7670°N, 9.1830°E)
Time: 12:20:53
(UTC+01:00)

PAYLOAD B - Pass Details

Date: 24 January 2019
Orbit: 849 x 872 km, 99.1° (Epoch: 22 February)

Event Time Altitude Azimuth Distance (km) Brightness Sun altitude
Rises 05:49:12 0° 12° (NNE) 3,470 7.5 -21.9°
Reaches altitude 10° 05:51:37 10° 9° (N) 2,526 6.7 -21.5°
Maximum altitude 05:57:08 62° 291° (WNW) 976 4.2 -20.6°
Drops below altitude 10° 06:02:35 10° 212° (SSW) 2,495 6.4 -19.7°
Sets 06:04:58 0° 209° (SSW) 3,425 7.2 -19.3°
